Погода в Олесунне

Норвегия     62°28′22″N   6°09′28″E
темп.,
°C
ветер,
м/с
пор.,
м/с
влажн.,
%
обл.,
%
осадки,
мм/ч
давл.,
гПа
погр.,
м
23 октября, сб
сб2323:00+8ссз10116699 2.2 10091410
02:00+8сз8865100 4.3 10121171
05:00+8сз4559100 1.4 10141197
08:00+7ююз336497 1.8 1015939
11:00+6ю5574100 0.3 1017440
14:00+7ю4466100 0.3 1018512
17:00+7ююв4460100 0.0 1016490
20:00+7ююв5463100 0.0 1015339
24 октября, вс
вс2423:00+6ююв5569100 0.2 1013312
02:00+7ююв7874100 1.8 1010306
05:00+9ююв7867100 1.0 1008288
08:00+10ююв7770100 1.0 1007219
11:00+10ююв7769100 0.0 1006205
14:00+10ююв7871100 0.1 1006261
17:00+10ююв71073100 0.0 1004353
20:00+10ююв7869100 0.0 1004203
25 октября, пн
пн2523:00+10ююв8107389 0.0 1004354
02:00+10ююв8976100 0.0 1003260
05:00+10ююв6776100 0.3 1003229
08:00+10ююв7880100 0.4 1002208
11:00+10ю4478100 0.4 1001243
14:00+10ююв7880100 2.3 1002385
17:00+9ююв5577100 0.0 1001240
20:00+9з3481100 0.6 1002336
26 октября, вт
вт2623:00+7ю7108398 4.6 1004660
02:00+8ю688254 4.8 1004419
05:00+8ю668090 0.1 1004352
08:00+7ю698488 0.6 1005664
11:00+7ю798499 0.1 1006591
14:00+8ю7108141 0.3 1007595
17:00+8ю667513 0.1 1008375
20:00+8ююв5571100 0.1 1008275
27 октября, ср
ср2723:00+8ююв5572100 0.0 1008240
02:00+8ююв6672100 0.0 1007237
05:00+8юв7881100 2.1 1006300
08:00+9ююв8975100 3.9 1005280
11:00+10ююв8976100 0.1 1004195
14:00+11ююв91079100 0.3 1003211
17:00+11ю6782100 0.4 1004171
20:00+11ююз4485100 1.9 1006147